Photometre #642[NE_1.2] Dushanbe AOT

File : 20220828_642.hum

28/08/2022,01:36:42,TEMP=18.8,BA=5.24,STAT.A=0.0,ExtBa=13.56
28/08/2022,01:40:04,TEMP=19.2,BA=5.16,STAT.A=0.0,ExtBa=13.56
28/08/2022,01:43:49,TEMP=19.3,BA=5.16,STAT.A=0.0,ExtBa=13.56
28/08/2022,01:48:23,TEMP=19.5,BA=5.16,STAT.A=0.0,ExtBa=13.56
28/08/2022,01:53:49,TEMP=19.7,BA=5.16,STAT.A=0.0,ExtBa=13.56
28/08/2022,02:00:31,TEMP=20.0,BA=5.32,STAT.A=0.0,ExtBa=13.56
28/08/2022,02:08:52,TEMP=20.4,BA=5.32,STAT.B=0.0,ExtBa=13.56
28/08/2022,02:18:31,TEMP=21.4,BA=5.20,STAT.A=0.0,ExtBa=13.56
28/08/2022,02:20:24,TEMP=21.7,BA=5.24,STAT.A=0.5,ExtBa=13.56
28/08/2022,02:22:21,TEMP=22.0,BA=5.24,STAT.A=0.0,ExtBa=13.56
28/08/2022,02:27:58,TEMP=22.0,BA=5.24,STAT.A=0.5,ExtBa=13.56
28/08/2022,02:34:25,TEMP=22.4,BA=5.44,STAT.C=0.5,ExtBa=13.56
28/08/2022,02:48:59,TEMP=23.7,BA=5.28,STAT.A=0.5,ExtBa=13.57
28/08/2022,02:50:53,TEMP=24.0,BA=5.28,STAT.A=0.5,ExtBa=13.56
28/08/2022,03:00:53,TEMP=23.8,BA=5.48,STAT.A=0.5,ExtBa=13.57
28/08/2022,03:13:20,TEMP=24.6,BA=5.52,STAT.A=0.5,ExtBa=13.67
28/08/2022,03:28:46,TEMP=25.3,BA=5.52,STAT.B=0.5,ExtBa=13.86
28/08/2022,04:00:39,TEMP=26.8,BA=5.56,STAT.B=0.5,ExtBa=14.20
28/08/2022,04:11:33,TEMP=27.5,BA=5.48,STAT.D=0.5,ExtBa=13.95
28/08/2022,04:26:33,TEMP=28.2,BA=5.56,STAT.F,ExtBa=14.26
28/08/2022,04:41:33,TEMP=29.3,BA=5.32,STAT.D=1.0,ExtBa=13.94
28/08/2022,04:56:33,TEMP=29.8,BA=5.56,STAT.D=1.0,ExtBa=14.38
28/08/2022,05:11:33,TEMP=30.7,BA=5.56,STAT.D=1.0,ExtBa=14.42
28/08/2022,05:26:35,TEMP=31.4,BA=5.56,STAT.F,ExtBa=14.41
28/08/2022,05:41:33,TEMP=32.1,BA=5.56,STAT.D=1.0,ExtBa=14.46
28/08/2022,05:56:32,TEMP=32.8,BA=5.56,STAT.D=1.0,ExtBa=14.46
28/08/2022,06:11:33,TEMP=33.3,BA=5.52,STAT.D=1.0,ExtBa=14.47
28/08/2022,06:26:35,TEMP=33.7,BA=5.52,STAT.F,ExtBa=14.46
28/08/2022,06:41:33,TEMP=34.1,BA=5.48,STAT.D=1.0,ExtBa=14.48
28/08/2022,06:56:33,TEMP=34.6,BA=5.52,STAT.D=1.5,ExtBa=14.49
28/08/2022,07:11:33,TEMP=34.4,BA=5.48,STAT.D=1.5,ExtBa=14.51
28/08/2022,07:26:35,TEMP=35.0,BA=5.48,STAT.F,ExtBa=14.47
28/08/2022,07:41:33,TEMP=35.2,BA=5.44,STAT.D=1.5,ExtBa=14.41
28/08/2022,07:56:33,TEMP=35.4,BA=5.44,STAT.D=1.5,ExtBa=14.46
28/08/2022,08:11:33,TEMP=35.2,BA=5.44,STAT.D=1.5,ExtBa=14.52
28/08/2022,08:26:35,TEMP=35.4,BA=5.44,STAT.F,ExtBa=14.43
28/08/2022,08:41:33,TEMP=35.9,BA=5.44,STAT.D=1.5,ExtBa=14.42
28/08/2022,08:56:33,TEMP=35.8,BA=5.44,STAT.D=1.5,ExtBa=14.42
28/08/2022,09:11:33,TEMP=35.9,BA=5.44,STAT.D=1.5,ExtBa=14.39
28/08/2022,09:26:35,TEMP=36.0,BA=5.44,STAT.F,ExtBa=14.35
28/08/2022,09:41:33,TEMP=35.5,BA=5.44,STAT.D=1.5,ExtBa=14.34
28/08/2022,09:56:32,TEMP=35.9,BA=5.44,STAT.D=1.5,ExtBa=14.29
28/08/2022,10:11:33,TEMP=36.5,BA=5.44,STAT.D=1.5,ExtBa=14.23
28/08/2022,10:26:34,TEMP=36.1,BA=5.44,STAT.F,ExtBa=14.17
28/08/2022,10:41:31,STAT.p
28/08/2022,10:52:30,TEMP=35.9,BA=5.40,STAT.B=1.5,ExtBa=14.06
28/08/2022,11:24:21,TEMP=36.3,BA=5.44,STAT.B=1.5,ExtBa=13.90
28/08/2022,11:39:47,TEMP=35.1,BA=5.32,STAT.A=1.5,ExtBa=13.72
28/08/2022,11:52:14,TEMP=35.2,BA=5.44,STAT.A=1.5,ExtBa=13.69
28/08/2022,12:02:32,TEMP=35.3,BA=5.44,STAT.A=1.5,ExtBa=13.61
28/08/2022,12:11:14,TEMP=35.1,BA=5.44,STAT.A=1.5,ExtBa=13.57
28/08/2022,12:18:41,TEMP=34.9,BA=5.44,STAT.C=1.5,ExtBa=13.56
28/08/2022,12:34:17,TEMP=34.3,BA=5.32,STAT.A=1.0,ExtBa=13.55
28/08/2022,12:36:17,TEMP=34.3,BA=5.32,STAT.A=1.0,ExtBa=13.55
28/08/2022,12:38:13,TEMP=34.3,BA=5.32,STAT.A=1.0,ExtBa=13.55
28/08/2022,12:40:16,TEMP=34.2,BA=5.32,STAT.A=1.0,ExtBa=13.55
28/08/2022,12:44:13,TEMP=33.5,BA=5.32,STAT.B=1.0,ExtBa=13.55
28/08/2022,12:54:06,TEMP=32.6,BA=5.28,STAT.A=1.0,ExtBa=13.55
28/08/2022,12:59:17,TEMP=32.1,BA=5.28,STAT.A=1.0,ExtBa=13.56
28/08/2022,13:04:42,TEMP=31.7,BA=5.28,STAT.A=1.0,ExtBa=13.56
28/08/2022,13:09:15,TEMP=31.4,BA=5.28,STAT.A=1.0,ExtBa=13.56
28/08/2022,13:13:04,TEMP=31.2,BA=5.28,STAT.A=1.0,ExtBa=13.56
28/08/2022,13:16:21,TEMP=31.1,BA=5.28,STAT.A=1.0,ExtBa=13.56